sat.trackr.live / text

‹ back to catalog

STARLINK-33794

NORAD 63820 · 2025-092S

PAYLOAD ACTIVE UNKNOWN

§ Identity

Operator
Country
US
Launch date
2025-05-04
Launch site
AFETR
Launch vehicle
Mass (kg)
RCS (m²)

Purposes: comms

External: N2YO · Heavens-Above · Gunter

§ Orbital elements

Epoch: 2026-09-19T01:04:30.999936Z

Period
94.27 min
Inclination
43.0043°
Eccentricity
0.0001735
Mean motion
15.27588513 rev/d
Perigee alt
481.8 km
Apogee alt
484.2 km
Semi-major
6,861.2 km
B*
4.3331e-4
RAAN
160.7642°
Arg perigee
253.0051°
Mean anomaly
107.0611°
Rev number
7,818

§ Raw data

STARLINK-337941 63820U 25092S   26262.04480324  .00011684  00000+0  43331-3 0  99962 63820  43.0043 160.7642 0001735 253.0051 107.0611 15.27588513 78188

JSON: /api/v1/satellites/63820 · /tle

For live sub-satellite position, see the globe view (requires WebGL).

§ Visibility from observer

Set your observer location to see the next 7 days of passes ≥ 10°. The values pass through the URL so the page stays shareable.

No JS? Fill the form by hand. The geolocation button needs JavaScript.